Tracking 29747 objects as of 10-Oct-2024
HD Live streaming from Space Station
objects crossing your sky now

DELTA 1 DEB

Track DELTA 1 DEB now!
10-day predictions


NORAD ID: 21283
Int'l Code: 1975-052U
Perigee: 1,092.2 km
Apogee: 1,464.1 km
Inclination: 99.7 °
Period: 111.0 minutes
Semi major axis: 7649 km
RCS: 0.1668 m2 (medium)
Launch date: June 12, 1975
Source: United States (US)
Launch site: AIR FORCE WESTERN TEST RANGE (AFWTR)

Note: This is SATELLITE DEBRIS
Your satellite tracking list
Your tracking list is empty




NASA's NSSDC Master Catalog

Two Line Element Set (TLE):
1 21283U 75052U   24283.39535542  .00000306  00000-0  10316-2 0  9992
2 21283  99.7417  70.5327 0243091 214.9713 202.9809 12.97737102582885
Source of the keplerian elements: AFSPC